Location: Ecklingerode
(51.5036°N, 10.3122°E)
Time: 14:45:29
(UTC+00:00)

Feng Yun 1-1 Rocket - Pass Details

Date: 29 October 2020
Orbit: 829 x 934 km, 99.2° (Epoch: 28 November)

Event Time Altitude Azimuth Distance (km) Brightness Sun altitude
Rises 16:40:22 0° 150° (SSE) 3,570 7.3 -7.4°
Reaches altitude 10° 16:42:48 10° 147° (SSE) 2,635 6.6 -7.7°
Maximum altitude 16:48:38 64° 68° (ENE) 1,035 4.4 -8.6°
Drops below altitude 10° 16:54:29 10° 349° (NNW) 2,647 6.8 -9.5°
Sets 16:56:56 0° 346° (NNW) 3,587 7.5 -9.9°
